N415DB PACD-PADU

Flight info

Callsign N415DB
Flight time 1h 6m
Altitude 10000
Route ELF G8 MORDI
Aircraft C208/L-SBDFGRY/LU2

Departure

Time 2026-05-08 20:51
Airport Cold Bay Airport (PACD)

Arrival

Time 2026-05-08 21:57
Airport Tom Madsen (Dutch Harbor) Airport (PADU)
Time Latitude Longitude Altitude Speed Heading
2026-05-08 20:40 55.20253 -162.71982 141 ft 0 kts 336°
2026-05-08 20:48 55.20255 -162.71984 141 ft 3 kts 328°
2026-05-08 20:49 55.20234 -162.72043 141 ft 11 kts 207°
2026-05-08 20:49 55.20173 -162.72124 141 ft 14 kts 231°
2026-05-08 20:49 55.20136 -162.72254 140 ft 10 kts 249°
2026-05-08 20:49 55.20134 -162.72326 140 ft 6 kts 293°
2026-05-08 20:50 55.20201 -162.72390 139 ft 21 kts 339°
2026-05-08 20:50 55.20491 -162.72590 144 ft 67 kts 339°
2026-05-08 20:50 55.20996 -162.72921 288 ft 80 kts 341°
2026-05-08 20:50 55.21535 -162.73179 539 ft 80 kts 335°
2026-05-08 20:51 55.21738 -162.74002 803 ft 80 kts 275°
2026-05-08 20:51 55.21742 -162.74961 1079 ft 80 kts 270°
2026-05-08 20:51 55.21683 -162.75997 1263 ft 92 kts 272°
2026-05-08 20:51 55.21625 -162.77199 1426 ft 106 kts 272°
2026-05-08 20:52 55.21575 -162.78555 1637 ft 116 kts 272°
2026-05-08 20:52 55.21524 -162.80015 1847 ft 123 kts 272°
2026-05-08 20:52 55.21479 -162.81537 2053 ft 130 kts 272°
2026-05-08 20:52 55.21433 -162.83169 2262 ft 135 kts 272°
2026-05-08 20:53 55.21400 -162.84816 2459 ft 138 kts 272°
2026-05-08 20:53 55.21381 -162.86517 2654 ft 141 kts 272°
2026-05-08 20:53 55.21357 -162.88244 2844 ft 143 kts 272°
2026-05-08 20:53 55.21334 -162.89987 3036 ft 144 kts 272°
2026-05-08 20:54 55.21308 -162.91748 3220 ft 146 kts 272°
2026-05-08 20:54 55.21280 -162.93526 3402 ft 146 kts 272°
2026-05-08 20:54 55.21249 -162.95309 3584 ft 147 kts 272°
2026-05-08 20:54 55.21216 -162.97096 3767 ft 147 kts 272°
2026-05-08 20:55 55.21189 -162.98883 3950 ft 147 kts 272°
2026-05-08 20:55 55.21159 -163.00668 4135 ft 147 kts 272°
2026-05-08 20:55 55.21132 -163.02457 4322 ft 147 kts 272°
2026-05-08 20:55 55.21106 -163.04246 4509 ft 147 kts 272°
2026-05-08 20:56 55.21082 -163.06031 4694 ft 146 kts 272°
2026-05-08 20:56 55.21058 -163.07815 4873 ft 146 kts 272°
2026-05-08 20:56 55.21035 -163.09596 5053 ft 146 kts 272°
2026-05-08 20:56 55.21011 -163.11370 5233 ft 146 kts 272°
2026-05-08 20:57 55.20986 -163.13138 5425 ft 144 kts 272°
2026-05-08 20:57 55.20954 -163.14890 5633 ft 143 kts 272°
2026-05-08 20:57 55.20916 -163.16602 5838 ft 142 kts 272°
2026-05-08 20:57 55.20882 -163.18322 6049 ft 141 kts 272°
2026-05-08 20:58 55.20841 -163.20029 6257 ft 140 kts 272°
2026-05-08 20:58 55.20797 -163.21727 6454 ft 139 kts 272°
2026-05-08 20:58 55.20757 -163.23417 6650 ft 139 kts 272°
2026-05-08 20:58 55.20720 -163.25100 6849 ft 138 kts 272°
2026-05-08 20:59 55.20686 -163.26777 7052 ft 138 kts 272°
2026-05-08 20:59 55.20643 -163.28446 7250 ft 137 kts 269°
2026-05-08 20:59 55.20409 -163.30081 7453 ft 139 kts 257°
2026-05-08 20:59 55.20135 -163.31696 7657 ft 138 kts 258°
2026-05-08 21:00 55.19864 -163.33309 7860 ft 138 kts 258°
2026-05-08 21:00 55.19593 -163.34916 8066 ft 137 kts 258°
2026-05-08 21:00 55.19322 -163.36512 8274 ft 137 kts 258°
2026-05-08 21:00 55.19051 -163.38104 8483 ft 136 kts 258°
2026-05-08 21:01 55.18785 -163.39668 8690 ft 136 kts 258°
2026-05-08 21:01 55.18515 -163.41251 8901 ft 135 kts 258°
2026-05-08 21:01 55.18246 -163.42829 9112 ft 135 kts 258°
2026-05-08 21:01 55.17978 -163.44398 9327 ft 134 kts 258°
2026-05-08 21:02 55.17710 -163.45965 9543 ft 134 kts 258°
2026-05-08 21:02 55.17444 -163.47524 9756 ft 134 kts 258°
2026-05-08 21:02 55.17177 -163.49083 9950 ft 133 kts 258°
2026-05-08 21:02 55.16906 -163.50681 10016 ft 143 kts 258°
2026-05-08 21:03 55.16610 -163.52388 10026 ft 149 kts 257°
2026-05-08 21:03 55.16308 -163.54149 10033 ft 153 kts 257°
2026-05-08 21:03 55.15998 -163.55950 10032 ft 156 kts 257°
2026-05-08 21:03 55.15688 -163.57755 10030 ft 158 kts 257°
2026-05-08 21:04 55.15371 -163.59602 10032 ft 159 kts 257°
2026-05-08 21:04 55.15049 -163.61463 10032 ft 160 kts 257°
2026-05-08 21:04 55.14726 -163.63324 10031 ft 160 kts 257°
2026-05-08 21:04 55.14386 -163.65182 10032 ft 160 kts 256°
2026-05-08 21:05 55.14048 -163.67045 10031 ft 161 kts 256°
2026-05-08 21:05 55.13714 -163.68888 10031 ft 161 kts 256°
2026-05-08 21:05 55.13374 -163.70756 10034 ft 161 kts 256°
2026-05-08 21:05 55.13036 -163.72624 10031 ft 161 kts 256°
2026-05-08 21:06 55.12696 -163.74499 10032 ft 161 kts 257°
2026-05-08 21:06 55.12355 -163.76370 10032 ft 161 kts 256°
2026-05-08 21:06 55.12016 -163.78238 10032 ft 161 kts 256°
2026-05-08 21:06 55.11675 -163.80106 10034 ft 161 kts 256°
2026-05-08 21:07 55.11334 -163.81977 10034 ft 161 kts 256°
2026-05-08 21:07 55.10997 -163.83822 10034 ft 161 kts 256°
2026-05-08 21:07 55.10656 -163.85690 10037 ft 161 kts 256°
2026-05-08 21:07 55.10313 -163.87564 10034 ft 161 kts 256°
2026-05-08 21:08 55.09970 -163.89433 10034 ft 161 kts 256°
2026-05-08 21:08 55.09629 -163.91299 10028 ft 161 kts 256°
2026-05-08 21:08 55.09287 -163.93165 10025 ft 161 kts 256°
2026-05-08 21:08 55.08945 -163.95026 10023 ft 161 kts 256°
2026-05-08 21:09 55.08603 -163.96888 10023 ft 161 kts 256°
2026-05-08 21:09 55.08260 -163.98751 10023 ft 161 kts 256°
2026-05-08 21:09 55.07916 -164.00619 10023 ft 161 kts 256°
2026-05-08 21:09 55.07577 -164.02458 10023 ft 161 kts 256°
2026-05-08 21:10 55.07233 -164.04320 10029 ft 161 kts 256°
2026-05-08 21:10 55.06888 -164.06184 10029 ft 161 kts 256°
2026-05-08 21:10 55.06544 -164.08044 10029 ft 161 kts 256°
2026-05-08 21:10 55.06200 -164.09906 10029 ft 161 kts 256°
2026-05-08 21:11 55.05855 -164.11766 10026 ft 161 kts 256°
2026-05-08 21:11 55.05510 -164.13628 10026 ft 161 kts 256°
2026-05-08 21:11 55.05164 -164.15489 10026 ft 161 kts 256°
2026-05-08 21:11 55.04819 -164.17346 10026 ft 161 kts 256°
2026-05-08 21:12 55.04473 -164.19206 10023 ft 161 kts 256°
2026-05-08 21:12 55.04132 -164.21040 10023 ft 161 kts 256°
2026-05-08 21:12 55.03785 -164.22897 10023 ft 161 kts 256°
2026-05-08 21:12 55.03439 -164.24753 10023 ft 161 kts 256°
2026-05-08 21:13 55.03092 -164.26611 10024 ft 161 kts 256°
2026-05-08 21:13 55.02744 -164.28471 10017 ft 161 kts 256°
2026-05-08 21:13 55.02396 -164.30333 10019 ft 162 kts 256°
2026-05-08 21:13 55.02045 -164.32205 10021 ft 162 kts 256°
2026-05-08 21:14 55.01698 -164.34058 10020 ft 162 kts 256°
2026-05-08 21:14 55.01345 -164.35936 10019 ft 163 kts 256°
2026-05-08 21:14 55.00993 -164.37811 10019 ft 163 kts 256°
2026-05-08 21:14 55.00640 -164.39686 10020 ft 163 kts 256°
2026-05-08 21:15 55.00287 -164.41557 10020 ft 163 kts 256°
2026-05-08 21:15 54.99934 -164.43429 10020 ft 163 kts 256°
2026-05-08 21:15 54.99581 -164.45300 10017 ft 163 kts 256°
2026-05-08 21:15 54.99233 -164.47152 10017 ft 163 kts 255°
2026-05-08 21:16 54.98878 -164.49024 10018 ft 163 kts 256°
2026-05-08 21:16 54.98524 -164.50896 10018 ft 163 kts 256°
2026-05-08 21:16 54.98168 -164.52780 10018 ft 163 kts 256°
2026-05-08 21:16 54.97813 -164.54652 10018 ft 163 kts 256°
2026-05-08 21:17 54.97457 -164.56527 10024 ft 163 kts 256°
2026-05-08 21:17 54.97102 -164.58396 10025 ft 162 kts 256°
2026-05-08 21:17 54.96747 -164.60263 10024 ft 162 kts 255°
2026-05-08 21:17 54.96392 -164.62127 10024 ft 162 kts 256°
2026-05-08 21:18 54.96036 -164.63994 10021 ft 162 kts 256°
2026-05-08 21:18 54.95681 -164.65858 10021 ft 162 kts 256°
2026-05-08 21:18 54.95325 -164.67723 9996 ft 164 kts 256°
2026-05-08 21:18 54.94963 -164.69617 9958 ft 165 kts 255°
2026-05-08 21:19 54.94603 -164.71495 9958 ft 163 kts 256°
2026-05-08 21:19 54.94249 -164.73344 9957 ft 162 kts 256°
2026-05-08 21:19 54.93892 -164.75210 9956 ft 162 kts 256°
2026-05-08 21:19 54.93536 -164.77065 9956 ft 162 kts 255°
2026-05-08 21:20 54.93180 -164.78920 9949 ft 161 kts 256°
2026-05-08 21:20 54.92827 -164.80768 9954 ft 161 kts 256°
2026-05-08 21:20 54.92473 -164.82622 9953 ft 161 kts 256°
2026-05-08 21:20 54.92117 -164.84469 9953 ft 161 kts 256°
2026-05-08 21:21 54.91760 -164.86316 9953 ft 161 kts 255°
2026-05-08 21:21 54.91404 -164.88163 9953 ft 161 kts 256°
2026-05-08 21:21 54.91047 -164.90010 9954 ft 161 kts 255°
2026-05-08 21:21 54.90690 -164.91854 9953 ft 161 kts 256°
2026-05-08 21:22 54.90337 -164.93674 9953 ft 161 kts 256°
2026-05-08 21:22 54.89979 -164.95520 9954 ft 161 kts 256°
2026-05-08 21:22 54.89621 -164.97364 9953 ft 161 kts 256°
2026-05-08 21:22 54.89263 -164.99210 9953 ft 161 kts 255°
2026-05-08 21:23 54.88903 -165.01054 9954 ft 161 kts 256°
2026-05-08 21:23 54.88545 -165.02898 9954 ft 161 kts 255°
2026-05-08 21:23 54.88185 -165.04744 9954 ft 161 kts 256°
2026-05-08 21:23 54.87636 -165.06462 9956 ft 165 kts 236°
2026-05-08 21:24 54.86947 -165.08048 9960 ft 165 kts 238°
2026-05-08 21:24 54.86277 -165.09663 9957 ft 165 kts 239°
2026-05-08 21:24 54.85831 -165.10735 9956 ft 165 kts 238°
2026-05-08 21:24 54.84935 -165.12881 9956 ft 166 kts 238°
2026-05-08 21:25 54.84256 -165.14502 9956 ft 166 kts 238°
2026-05-08 21:25 54.83575 -165.16127 9958 ft 166 kts 238°
2026-05-08 21:25 54.83122 -165.17205 9958 ft 166 kts 238°
2026-05-08 21:25 54.82442 -165.18830 9958 ft 167 kts 238°
2026-05-08 21:26 54.81760 -165.20453 9956 ft 167 kts 238°
2026-05-08 21:26 54.81077 -165.22079 9947 ft 167 kts 237°
2026-05-08 21:26 54.80393 -165.23703 9947 ft 166 kts 238°
2026-05-08 21:26 54.79711 -165.25325 9946 ft 166 kts 239°
2026-05-08 21:27 54.79031 -165.26947 9947 ft 166 kts 238°
2026-05-08 21:27 54.78348 -165.28565 9947 ft 166 kts 238°
2026-05-08 21:27 54.77666 -165.30179 9947 ft 166 kts 238°
2026-05-08 21:27 54.76986 -165.31793 9947 ft 166 kts 239°
2026-05-08 21:28 54.76305 -165.33409 9950 ft 166 kts 238°
2026-05-08 21:28 54.75623 -165.35024 9950 ft 166 kts 237°
2026-05-08 21:28 54.74940 -165.36635 9956 ft 166 kts 238°
2026-05-08 21:28 54.74257 -165.38252 9956 ft 166 kts 239°
2026-05-08 21:29 54.73574 -165.39870 9956 ft 166 kts 238°
2026-05-08 21:29 54.72897 -165.41468 9956 ft 166 kts 237°
2026-05-08 21:29 54.72214 -165.43079 9956 ft 166 kts 238°
2026-05-08 21:29 54.71530 -165.44690 9956 ft 166 kts 239°
2026-05-08 21:30 54.70847 -165.46304 9953 ft 166 kts 238°
2026-05-08 21:30 54.70162 -165.47918 9953 ft 166 kts 237°
2026-05-08 21:30 54.69476 -165.49529 9954 ft 166 kts 238°
2026-05-08 21:30 54.68792 -165.51139 9954 ft 166 kts 238°
2026-05-08 21:31 54.68106 -165.52754 9951 ft 166 kts 238°
2026-05-08 21:31 54.67424 -165.54356 9951 ft 166 kts 238°
2026-05-08 21:31 54.66735 -165.55971 9951 ft 166 kts 237°
2026-05-08 21:31 54.66055 -165.57565 9950 ft 166 kts 238°
2026-05-08 21:32 54.65360 -165.59196 9949 ft 167 kts 238°
2026-05-08 21:32 54.64680 -165.60792 9950 ft 167 kts 238°
2026-05-08 21:32 54.63992 -165.62405 9950 ft 167 kts 237°
2026-05-08 21:32 54.63303 -165.64015 9951 ft 167 kts 238°
2026-05-08 21:33 54.62613 -165.65631 9956 ft 167 kts 238°
2026-05-08 21:33 54.61920 -165.67251 9956 ft 167 kts 238°
2026-05-08 21:33 54.61228 -165.68864 9957 ft 167 kts 237°
2026-05-08 21:33 54.60537 -165.70480 9957 ft 167 kts 238°
2026-05-08 21:34 54.59845 -165.72092 9959 ft 168 kts 238°
2026-05-08 21:34 54.59152 -165.73709 9960 ft 167 kts 238°
2026-05-08 21:34 54.58469 -165.75300 9960 ft 167 kts 237°
2026-05-08 21:34 54.57777 -165.76909 9960 ft 167 kts 237°
2026-05-08 21:35 54.57086 -165.78521 9960 ft 167 kts 238°
2026-05-08 21:35 54.56392 -165.80134 9960 ft 167 kts 238°
2026-05-08 21:35 54.55699 -165.81744 9961 ft 167 kts 236°
2026-05-08 21:35 54.55006 -165.83350 9961 ft 167 kts 237°
2026-05-08 21:36 54.54309 -165.84969 9956 ft 167 kts 238°
2026-05-08 21:36 54.53615 -165.86582 9959 ft 167 kts 238°
2026-05-08 21:36 54.52921 -165.88189 9960 ft 167 kts 237°
2026-05-08 21:36 54.52235 -165.89775 9960 ft 167 kts 237°
2026-05-08 21:37 54.51542 -165.91379 9957 ft 167 kts 239°
2026-05-08 21:37 54.50848 -165.92989 9958 ft 167 kts 238°
2026-05-08 21:37 54.50153 -165.94593 9960 ft 167 kts 237°
2026-05-08 21:37 54.49458 -165.96196 9960 ft 167 kts 237°
2026-05-08 21:38 54.48765 -165.97800 9960 ft 167 kts 238°
2026-05-08 21:38 54.48070 -165.99403 9960 ft 167 kts 238°
2026-05-08 21:38 54.47375 -166.01005 9961 ft 167 kts 236°
2026-05-08 21:38 54.46682 -166.02599 9961 ft 167 kts 237°
2026-05-08 21:39 54.45989 -166.04197 9963 ft 167 kts 238°
2026-05-08 21:39 54.45296 -166.05797 9963 ft 167 kts 237°
2026-05-08 21:39 54.44599 -166.07396 9963 ft 167 kts 236°
2026-05-08 21:39 54.43903 -166.08993 9963 ft 167 kts 236°
2026-05-08 21:40 54.43207 -166.10591 9965 ft 167 kts 238°
2026-05-08 21:40 54.42510 -166.12195 9966 ft 167 kts 237°
2026-05-08 21:40 54.41820 -166.13777 9967 ft 167 kts 236°
2026-05-08 21:41 54.40421 -166.16981 9966 ft 168 kts 237°
2026-05-08 21:41 54.39721 -166.18588 9967 ft 168 kts 237°
2026-05-08 21:41 54.39018 -166.20196 9967 ft 168 kts 236°
2026-05-08 21:41 54.38316 -166.21798 9981 ft 168 kts 236°
2026-05-08 21:42 54.37617 -166.23398 9978 ft 168 kts 237°
2026-05-08 21:42 54.36916 -166.25000 9986 ft 168 kts 237°
2026-05-08 21:42 54.36215 -166.26599 9987 ft 168 kts 236°
2026-05-08 21:42 54.35514 -166.28195 9986 ft 167 kts 236°
2026-05-08 21:43 54.34823 -166.29772 9980 ft 168 kts 237°
2026-05-08 21:43 54.34122 -166.31371 9980 ft 167 kts 237°
2026-05-08 21:43 54.33421 -166.32964 9981 ft 167 kts 236°
2026-05-08 21:43 54.32711 -166.34571 9855 ft 169 kts 236°
2026-05-08 21:44 54.32010 -166.36148 9667 ft 164 kts 237°
2026-05-08 21:44 54.31328 -166.37704 9469 ft 162 kts 237°
2026-05-08 21:44 54.30656 -166.39238 9275 ft 160 kts 236°
2026-05-08 21:44 54.29986 -166.40756 9082 ft 159 kts 237°
2026-05-08 21:45 54.29319 -166.42270 8892 ft 159 kts 237°
2026-05-08 21:45 54.28651 -166.43790 8687 ft 161 kts 236°
2026-05-08 21:45 54.27976 -166.45317 8487 ft 161 kts 236°
2026-05-08 21:45 54.27304 -166.46837 8304 ft 160 kts 236°
2026-05-08 21:46 54.26632 -166.48355 8122 ft 160 kts 237°
2026-05-08 21:46 54.25959 -166.49877 7940 ft 160 kts 237°
2026-05-08 21:46 54.25286 -166.51398 7764 ft 160 kts 236°
2026-05-08 21:46 54.24614 -166.52914 7582 ft 160 kts 236°
2026-05-08 21:47 54.23900 -166.54339 7405 ft 162 kts 220°
2026-05-08 21:47 54.22865 -166.55104 7231 ft 164 kts 192°
2026-05-08 21:47 54.21743 -166.55457 7057 ft 164 kts 191°
2026-05-08 21:47 54.20638 -166.55832 6879 ft 160 kts 192°
2026-05-08 21:48 54.19557 -166.56202 6701 ft 158 kts 192°
2026-05-08 21:48 54.18483 -166.56566 6524 ft 156 kts 192°
2026-05-08 21:48 54.17419 -166.56927 6348 ft 155 kts 192°
2026-05-08 21:48 54.16373 -166.57280 6165 ft 155 kts 192°
2026-05-08 21:49 54.15313 -166.57638 5978 ft 155 kts 191°
2026-05-08 21:49 54.14256 -166.57995 5794 ft 154 kts 191°
2026-05-08 21:49 54.13203 -166.58349 5611 ft 154 kts 191°
2026-05-08 21:49 54.12150 -166.58705 5412 ft 155 kts 191°
2026-05-08 21:50 54.11088 -166.59062 5211 ft 155 kts 191°
2026-05-08 21:50 54.10025 -166.59370 4998 ft 155 kts 180°
2026-05-08 21:50 54.08961 -166.59146 4799 ft 154 kts 169°
2026-05-08 21:50 54.07894 -166.58911 4596 ft 155 kts 171°
2026-05-08 21:51 54.06827 -166.58686 4382 ft 154 kts 171°
2026-05-08 21:51 54.05756 -166.58459 4153 ft 156 kts 171°
2026-05-08 21:51 54.04717 -166.58237 3946 ft 146 kts 171°
2026-05-08 21:51 54.03730 -166.58026 3722 ft 143 kts 171°
2026-05-08 21:52 54.02748 -166.57814 3491 ft 142 kts 171°
2026-05-08 21:52 54.01770 -166.57604 3259 ft 142 kts 171°
2026-05-08 21:52 54.00791 -166.57393 3033 ft 141 kts 171°
2026-05-08 21:52 53.99818 -166.57183 2810 ft 140 kts 172°
2026-05-08 21:53 53.98853 -166.56975 2605 ft 139 kts 173°
2026-05-08 21:53 53.97889 -166.56767 2388 ft 138 kts 173°
2026-05-08 21:53 53.96943 -166.56566 2169 ft 136 kts 173°
2026-05-08 21:53 53.96013 -166.56366 2007 ft 130 kts 173°
2026-05-08 21:54 53.95154 -166.56184 1993 ft 120 kts 173°
2026-05-08 21:54 53.94348 -166.56013 1952 ft 116 kts 173°
2026-05-08 21:54 53.93530 -166.55838 1841 ft 120 kts 173°
2026-05-08 21:54 53.92690 -166.55689 1666 ft 127 kts 178°
2026-05-08 21:55 53.91798 -166.55711 1287 ft 126 kts 184°
2026-05-08 21:55 53.90936 -166.55837 900 ft 123 kts 186°
2026-05-08 21:55 53.90120 -166.55783 746 ft 110 kts 166°
2026-05-08 21:56 53.88901 -166.54555 647 ft 97 kts 136°
2026-05-08 21:56 53.88382 -166.53807 658 ft 99 kts 135°
2026-05-08 21:56 53.87982 -166.52902 637 ft 90 kts 89°
2026-05-08 21:56 53.88249 -166.52168 594 ft 71 kts
2026-05-08 21:57 53.88711 -166.52580 356 ft 83 kts 323°
2026-05-08 21:57 53.89123 -166.53251 162 ft 80 kts 316°
2026-05-08 21:57 53.89500 -166.53867 15 ft 67 kts 316°
2026-05-08 21:57 53.89756 -166.54285 13 ft 35 kts 316°
2026-05-08 21:58 53.89862 -166.54461 10 ft 7 kts 227°
2026-05-08 21:58 53.89815 -166.54386 10 ft 15 kts 133°
2026-05-08 21:58 53.89721 -166.54230 13 ft 18 kts 135°
2026-05-08 21:58 53.89642 -166.54098 11 ft 15 kts 136°
2026-05-08 21:59 53.89570 -166.54073 11 ft 9 kts 219°
2026-05-08 21:59 53.89556 -166.54145 12 ft 5 kts 283°
2026-05-08 21:59 53.89563 -166.54203 12 ft 5 kts 268°
2026-05-08 21:59 53.89528 -166.54246 13 ft 8 kts 151°
2026-05-08 22:00 53.89519 -166.54220 13 ft 0 kts 103°